Tracking 29489 objects as of 9-Sep-2024
HD Live streaming from Space Station
objects crossing your sky now

FENGYUN 1C DEB

Track FENGYUN 1C DEB now!
10-day predictions


NORAD ID: 31325
Int'l Code: 1999-025BQD
Perigee: 807.3 km
Apogee: 918.6 km
Inclination: 99.0 °
Period: 102.1 minutes
Semi major axis: 7233 km
RCS: 0.0037 m2 (small)
Launch date: May 10, 1999
Source: People's Republic of China (PRC)
Launch site: Taiyaun Space Center, China (TSC)

Note: This is SATELLITE DEBRIS
Your satellite tracking list
Your tracking list is empty




NASA's NSSDC Master Catalog

Two Line Element Set (TLE):
1 31325U 99025BQD 24247.46977563  .00010182  00000-0  55235-2 0  9999
2 31325  99.0018 332.3251 0076922  99.2573 261.7308 14.11051577532002
Source of the keplerian elements: AFSPC